Location: ????????
(55.6333°N, 37.7000°E)
Time: 14:21:08
(UTC+00:00)

Okean-O - Pass Details

Date: 19 May 2025
Orbit: 628 x 631 km, 98.0° (Epoch: 20 June)

Event Time Altitude Azimuth Distance (km) Brightness Sun altitude
Rises 18:26:42 0° 180° (S) 2,915 5.6 -5.5°
Reaches altitude 10° 18:28:57 10° 186° (S) 2,012 4.8 -5.7°
Maximum altitude 18:33:11 47° 261° (W) 845 3.5 -6.1°
Drops below altitude 10° 18:37:27 10° 335° (NNW) 2,027 6.8 -6.4°
Sets 18:39:44 0° 342° (NNW) 2,939 7.6 -6.7°
